Miscellaneous Local Product
Issued by NWS Hastings, NE

Home | Current Version | Previous Version | Graphics & Text | Print | Product List | Glossary On
Versions: 1 2 3 4 5 6 7 8 9 10 11 12 13 14 15 16 17 18 19 20 21 22 23 24 25 26 27 28 29 30 31 32 33 34 35 36 37 38 39 40 41 42 43 44 45 46 47 48 49 50
000
AXUS43 KGID 261302
MISGRI

GID CWA HOURLY WEATHER ROUNDUP
NATIONAL WEATHER SERVICE HASTINGS NE
800 AM CDT MON JUN 26 2017

NOTE: "FAIR" INDICATES FEW OR NO CLOUDS BELOW 12,000 FEET WITH NO
SIGNIFICANT WEATHER AND/OR OBSTRUCTIONS TO VISIBILITY.

...SOUTH CENTRAL NEBRASKA...

CITY           SKY/WX    TMP DP  RH WIND       PRES   REMARKS
GRAND ISLAND   LGT RAIN  62  59  90 W13       30.20S
HASTINGS       PTSUNNY   61  55  81 W12       30.23S
KEARNEY        CLOUDY    61  54  77 W8        30.22F
ORD            MOSUNNY   61  54  77 SW3       30.19S
YORK           PTSUNNY   61  55  82 CALM      30.22R
AURORA         PTSUNNY   62  57  82 W10       30.20S
LEXINGTON      CLOUDY    63  58  83 W6        30.23S
HOLDREGE       PTSUNNY   59  56  91 W6        30.23R
HEBRON         CLOUDY    62  56  78 W8        30.21S

...NEBRASKA PANHANDLE...

CITY           SKY/WX    TMP DP  RH WIND       PRES   REMARKS
CHADRON        SUNNY     47  40  76 SW3       30.27R
ALLIANCE       SUNNY     51  45  79 N8        30.24R
SCOTTSBLUFF    SUNNY     58  44  60 N7        30.25R
SIDNEY         SUNNY     57  54  89 NW3       30.26R

...WESTERN AND NORTH CENTRAL NEBRASKA...

CITY           SKY/WX    TMP DP  RH WIND       PRES   REMARKS
VALENTINE      SUNNY     57  43  59 NE9       30.24R
AINSWORTH      SUNNY     55  49  81 NE9       30.23S
ONEILL         MOSUNNY   56  49  78 N6        30.21S
BROKEN BOW     CLOUDY    61  57  87 SW9       30.21R
IMPERIAL       PTSUNNY   57  56  96 SE3       30.23S
NORTH PLATTE   CLOUDY    61  59  93 SW8       30.22F
MCCOOK         CLOUDY    62  58  86 SW8       30.23R

...EASTERN NEBRASKA...

CITY           SKY/WX    TMP DP  RH WIND       PRES   REMARKS
NORFOLK        MOSUNNY   61  52  72 CALM      30.18R
SO SIOUX CITY  MOSUNNY   58  53  84 NE3       30.21R
TEKAMAH        MOSUNNY   59  52  77 SE8       30.19S
COLUMBUS       MOSUNNY   65  54  67 SW7       30.19F
ALBION         MOSUNNY   64  54  70 SW3       30.18F
OMAHA EPPLEY   LGT RAIN  58  52  80 SE9       30.20R
OFFUTT AFB     TSTM      55  54  94 SE3       30.21R
MILLARD        LGT RAIN  58  57  94 SE5       30.20F
LINCOLN        LGT RAIN  61  55  81 E3        30.22S
NEBRASKA CITY  LGT RAIN  60  56  86 CALM      30.23S
BEATRICE       PTSUNNY   62  56  79 NW5       30.22R
FALLS CITY     LGT RAIN  57  54  89 MISG      30.23R

...NORTHERN KANSAS...

CITY           SKY/WX    TMP DP  RH WIND       PRES   REMARKS
GOODLAND       SUNNY     60  57  89 SW9       30.24S
HILL CITY      PTSUNNY   61  58  90 SW7       30.24R
NORTON         CLOUDY    59  54  82 SW5       30.23
PHILLIPSBURG   PTSUNNY   63  55  77 SW3       30.23S
SMITH CENTER   SUNNY     57  54  88 CALM      30.23S
HAYS           SUNNY     62  57  83 S7        30.23S
RUSSELL        SUNNY     62  57  83 S7        30.21S
CONCORDIA      MOSUNNY   60  55  83 NW5       30.21S
SALINA         MOSUNNY   67  59  75 CALM      30.21R
TOPEKA         MOSUNNY   63  59  87 CALM      30.19F



USA.gov is the U.S. government's official web portal to all federal, state and local government web resources and services.